TimeCST,TemperatureF,Dew PointF,Humidity,Sea Level PressureIn,VisibilityMPH,Wind Direction,Wind SpeedMPH,Gust SpeedMPH,PrecipitationIn,Events,Conditions,WindDirDegrees,DateUTC
12:54 AM,39.0,32.0,76,29.95,10.0,SSW,19.6,25.3,N/A,,Partly Cloudy,210,1998-01-01 06:54:00
1:54 AM,39.0,32.0,76,29.94,10.0,SSW,16.1,-,N/A,,Clear,200,1998-01-01 07:54:00
2:54 AM,37.9,32.0,79,29.93,10.0,SSW,17.3,-,N/A,,Clear,210,1998-01-01 08:54:00
3:54 AM,37.9,32.0,79,29.92,10.0,SW,19.6,-,N/A,,Clear,220,1998-01-01 09:54:00
4:54 AM,37.9,32.0,79,29.90,10.0,SSW,19.6,-,N/A,,Clear,210,1998-01-01 10:54:00
5:54 AM,37.0,30.9,79,29.90,10.0,SSW,17.3,-,N/A,,Clear,210,1998-01-01 11:54:00
6:54 AM,37.0,32.0,82,29.89,10.0,SSW,17.3,25.3,N/A,,Clear,210,1998-01-01 12:54:00
7:54 AM,37.0,30.9,79,29.90,10.0,SSW,13.8,21.9,N/A,,Scattered Clouds,200,1998-01-01 13:54:00
8:54 AM,37.9,32.0,79,29.90,10.0,SSW,12.7,-,N/A,,Scattered Clouds,210,1998-01-01 14:54:00
9:54 AM,39.9,32.0,73,29.91,10.0,SSW,15.0,-,N/A,,Clear,210,1998-01-01 15:54:00
10:54 AM,43.0,33.1,68,29.91,10.0,SSW,17.3,-,N/A,,Clear,210,1998-01-01 16:54:00
11:54 AM,45.0,34.0,65,29.90,10.0,SW,15.0,-,N/A,,Clear,230,1998-01-01 17:54:00
12:54 PM,46.0,34.0,63,29.88,10.0,SW,17.3,-,N/A,,Clear,230,1998-01-01 18:54:00
1:54 PM,46.9,35.1,63,29.88,10.0,SSW,17.3,-,N/A,,Clear,210,1998-01-01 19:54:00
2:54 PM,48.0,35.1,61,29.87,10.0,SW,12.7,-,N/A,,Clear,220,1998-01-01 20:54:00
3:54 PM,46.9,36.0,66,29.88,10.0,SSW,12.7,-,N/A,,Clear,210,1998-01-01 21:54:00
4:54 PM,45.0,36.0,71,29.91,10.0,SW,8.1,-,N/A,,Clear,220,1998-01-01 22:54:00
5:54 PM,39.9,35.1,83,29.92,10.0,Calm,Calm,-,N/A,,Clear,0,1998-01-01 23:54:00
6:54 PM,37.9,35.1,89,29.92,10.0,Calm,Calm,-,N/A,,Clear,0,1998-01-02 00:54:00
7:54 PM,33.1,32.0,96,29.92,10.0,Calm,Calm,-,N/A,,Clear,0,1998-01-02 01:54:00
8:54 PM,30.9,28.9,92,29.92,10.0,South,3.5,-,N/A,,Clear,170,1998-01-02 02:54:00
9:54 PM,32.0,30.9,96,29.90,10.0,SSE,4.6,-,N/A,,Clear,160,1998-01-02 03:54:00
10:54 PM,33.1,30.9,92,29.89,10.0,South,5.8,-,N/A,,Clear,170,1998-01-02 04:54:00
11:54 PM,30.9,30.0,96,29.87,10.0,SSE,4.6,-,N/A,,Clear,160,1998-01-02 05:54:00